Overview Statistics Trail Chart Weather Telemetry Raw packets
 

This is the latest recevied weather packets stored in our database for station/object SV1JSO-13. If no packets are shown the sender has not sent any weather packets the latest 10 day(s).

<< 47 48 49 50 51 52 53 >>
Time Temp. Humidity Pressure Rain* Wind** Luminosity Snow
1788346200 34.44° C 21% 1009 hPa 0 mm - 748 W/m² -
1788345900 33.89° C 22% 1009.2 hPa 0 mm - 741 W/m² -
1788345600 34.44° C 22% 1009.2 hPa 0 mm - 746 W/m² -
1788345300 33.89° C 22% 1009.1 hPa 0 mm - 747 W/m² -
1788345000 34.44° C 22% 1009.1 hPa 0 mm - 745 W/m² -
1788344700 33.89° C 22% 1009.2 hPa 0 mm - 744 W/m² -
1788344400 34.44° C 22% 1009.1 hPa 0 mm - 745 W/m² -
1788344100 34.44° C 22% 1009.4 hPa 0 mm - 748 W/m² -
1788343800 34.44° C 22% 1009.1 hPa 0 mm - 746 W/m² -
1788343500 33.89° C 23% 1009.2 hPa 0 mm - 742 W/m² -
1788343200 33.89° C 22% 1009.3 hPa 0 mm - 737 W/m² -
1788342900 34.44° C 22% 1009.3 hPa 0 mm - 738 W/m² -
1788342600 33.89° C 23% 1009.3 hPa 0 mm - 731 W/m² -
1788342300 33.89° C 23% 1009.4 hPa 0 mm - 730 W/m² -
1788342000 33.89° C 23% 1009.5 hPa 0 mm - 720 W/m² -
1788341700 33.33° C 24% 1009.5 hPa 0 mm - 709 W/m² -
1788341400 33.89° C 23% 1009.5 hPa 0 mm - 716 W/m² -
1788341100 33.89° C 23% 1009.5 hPa 0 mm - 703 W/m² -
1788340800 33.33° C 24% 1009.4 hPa 0 mm - 698 W/m² -
1788340500 33.33° C 23% 1009.5 hPa 0 mm - 691 W/m² -
1788340200 33.33° C 24% 1009.4 hPa 0 mm - 689 W/m² -
1788339900 33.33° C 24% 1009.4 hPa 0 mm - 676 W/m² -
1788339600 33.33° C 24% 1009.4 hPa 0 mm - 674 W/m² -
1788339300 33.33° C 23% 1009.4 hPa 0 mm - 664 W/m² -
1788339000 33.33° C 24% 1009.4 hPa 0 mm - 659 W/m² -

* Rain latest hour (hover to see other rain measurements)
** Current wind speed in m/s (hover to see current wind gust speed)